Location: Zagreb
(45.8000°N, 16.0000°E)
Time: 13:14:06
(UTC+02:00)

ISS - Visible Passes

Search period start: 31 May 2020 00:00
Search period end: 10 June 2020 00:00
Orbit: 417 x 419 km, 51.6° (Epoch: 31 May)

Date Brightness Start Highest point End Pass type
(mag) Time Alt. Az. Time Alt. Az. Time Alt. Az.
31 May -2.3 22:26:19 10° W 22:29:08 25° SW 22:30:08 21° SSW visible
01 Jun -2.9 21:38:13 10° WNW 21:41:23 39° SW 21:44:03 13° SSE visible
03 Jun -1.5 21:39:57 10° W 21:42:07 16° SW 21:44:17 10° S visible
